Time,TemperatureF,DewpointF,PressureIn,WindDirection,WindDirectionDegrees,WindSpeedMPH,WindSpeedGustMPH,Humidity,HourlyPrecipIn,Conditions,Clouds,dailyrainin,SoftwareType,DateUTC
2013-01-31 00:05:00,26.5,18.0,29.91,North,4,4.0,17.0,70,0.00,,,0.00,weatherlink.com 1.10,2013-01-31 06:05:00,
2013-01-31 00:20:00,26.6,17.0,29.92,West,274,15.0,15.0,68,0.00,,,0.00,weatherlink.com 1.10,2013-01-31 06:20:00,
2013-01-31 00:35:00,26.7,17.0,29.92,NNW,342,3.0,23.0,68,0.00,,,0.00,weatherlink.com 1.10,2013-01-31 06:35:00,
2013-01-31 00:50:00,26.4,19.0,29.92,WNW,295,11.0,14.0,73,0.00,,,0.00,weatherlink.com 1.10,2013-01-31 06:50:00,
2013-01-31 01:05:00,26.1,20.0,29.93,SW,228,12.0,17.0,76,0.00,,,0.00,weatherlink.com 1.10,2013-01-31 07:05:00,
2013-01-31 01:20:00,25.9,20.0,29.93,WSW,250,3.0,12.0,77,0.00,,,0.00,weatherlink.com 1.10,2013-01-31 07:20:00,
2013-01-31 01:35:00,26.0,19.0,29.93,WNW,294,4.0,16.0,75,0.00,,,0.00,weatherlink.com 1.10,2013-01-31 07:35:00,
2013-01-31 01:51:00,26.1,19.0,29.93,NNW,328,9.0,13.0,75,0.00,,,0.00,weatherlink.com 1.10,2013-01-31 07:51:00,
2013-01-31 02:06:00,26.1,19.0,29.93,SSW,212,0.0,20.0,75,0.00,,,0.00,weatherlink.com 1.10,2013-01-31 08:06:00,
2013-01-31 02:20:00,26.1,20.0,29.94,West,271,7.0,16.0,76,0.00,,,0.00,weatherlink.com 1.10,2013-01-31 08:20:00,
2013-01-31 02:36:00,26.1,20.0,29.95,NW,315,7.0,10.0,76,0.00,,,0.00,weatherlink.com 1.10,2013-01-31 08:36:00,
2013-01-31 02:50:00,25.9,20.0,29.94,NNW,330,4.0,9.0,77,0.00,,,0.00,weatherlink.com 1.10,2013-01-31 08:50:00,
2013-01-31 03:05:00,25.9,20.0,29.94,NW,307,3.0,11.0,79,0.00,,,0.00,weatherlink.com 1.10,2013-01-31 09:05:00,
2013-01-31 03:21:00,25.8,20.0,29.94,NW,323,4.0,8.0,80,0.00,,,0.00,weatherlink.com 1.10,2013-01-31 09:21:00,
2013-01-31 03:36:00,25.8,21.0,29.94,WSW,254,3.0,9.0,82,0.00,,,0.00,weatherlink.com 1.10,2013-01-31 09:36:00,
2013-01-31 03:51:00,25.6,21.0,29.93,NW,326,3.0,5.0,83,0.00,,,0.00,weatherlink.com 1.10,2013-01-31 09:51:00,
2013-01-31 04:06:00,25.5,20.0,29.93,SSE,153,1.0,10.0,81,0.00,,,0.00,weatherlink.com 1.10,2013-01-31 10:06:00,
2013-01-31 04:22:00,25.4,19.0,29.93,WNW,298,9.0,11.0,76,0.00,,,0.00,weatherlink.com 1.10,2013-01-31 10:22:00,
2013-01-31 04:36:00,25.4,18.0,29.93,West,263,6.0,9.0,74,0.00,,,0.00,weatherlink.com 1.10,2013-01-31 10:36:00,
2013-01-31 04:51:00,25.3,18.0,29.93,West,268,3.0,10.0,74,0.00,,,0.00,weatherlink.com 1.10,2013-01-31 10:51:00,
2013-01-31 05:06:00,25.2,18.0,29.94,WNW,293,4.0,12.0,73,0.00,,,0.00,weatherlink.com 1.10,2013-01-31 11:06:00,
2013-01-31 05:21:00,25.2,18.0,29.94,WNW,295,6.0,11.0,73,0.00,,,0.00,weatherlink.com 1.10,2013-01-31 11:21:00,
2013-01-31 05:36:00,25.1,18.0,29.94,WSW,242,3.0,13.0,73,0.00,,,0.00,weatherlink.com 1.10,2013-01-31 11:36:00,
2013-01-31 05:51:00,25.2,18.0,29.95,West,262,1.0,8.0,74,0.00,,,0.00,weatherlink.com 1.10,2013-01-31 11:51:00,
2013-01-31 06:06:00,25.1,18.0,29.95,WNW,284,2.0,9.0,74,0.00,,,0.00,weatherlink.com 1.10,2013-01-31 12:06:00,
2013-01-31 06:21:00,25.3,18.0,29.96,WSW,242,1.0,9.0,75,0.00,,,0.00,weatherlink.com 1.10,2013-01-31 12:21:00,
2013-01-31 06:36:00,25.5,19.0,29.96,SW,235,3.0,9.0,75,0.00,,,0.00,weatherlink.com 1.10,2013-01-31 12:36:00,
2013-01-31 06:51:00,25.5,19.0,29.96,West,260,8.0,10.0,75,0.00,,,0.00,weatherlink.com 1.10,2013-01-31 12:51:00,
2013-01-31 07:06:00,25.7,19.0,29.96,WSW,238,2.0,12.0,75,0.00,,,0.00,weatherlink.com 1.10,2013-01-31 13:06:00,
2013-01-31 07:21:00,25.7,19.0,29.97,WSW,255,1.0,10.0,75,0.00,,,0.00,weatherlink.com 1.10,2013-01-31 13:21:00,
2013-01-31 07:36:00,25.8,19.0,29.98,WSW,257,1.0,9.0,76,0.00,,,0.00,weatherlink.com 1.10,2013-01-31 13:36:00,
2013-01-31 07:51:00,26.0,19.0,29.98,WNW,284,2.0,12.0,75,0.00,,,0.00,weatherlink.com 1.10,2013-01-31 13:51:00,
2013-01-31 08:06:00,26.2,19.0,29.98,West,268,5.0,11.0,75,0.00,,,0.00,weatherlink.com 1.10,2013-01-31 14:06:00,
2013-01-31 08:21:00,26.5,20.0,29.99,NW,307,1.0,9.0,75,0.00,,,0.00,weatherlink.com 1.10,2013-01-31 14:21:00,
2013-01-31 08:36:00,26.7,20.0,30.00,WSW,240,3.0,9.0,76,0.00,,,0.00,weatherlink.com 1.10,2013-01-31 14:36:00,
2013-01-31 08:51:00,26.8,20.0,30.00,WSW,254,3.0,11.0,75,0.00,,,0.00,weatherlink.com 1.10,2013-01-31 14:51:00,
2013-01-31 09:06:00,27.1,20.0,30.01,WSW,238,3.0,11.0,75,0.00,,,0.00,weatherlink.com 1.10,2013-01-31 15:06:00,
2013-01-31 09:21:00,27.2,21.0,30.02,West,264,5.0,13.0,76,0.00,,,0.00,weatherlink.com 1.10,2013-01-31 15:21:00,
2013-01-31 09:36:00,27.5,21.0,30.02,NW,307,3.0,13.0,76,0.00,,,0.00,weatherlink.com 1.10,2013-01-31 15:36:00,
2013-01-31 09:52:00,27.7,22.0,30.03,North,4,3.0,14.0,78,0.00,,,0.00,weatherlink.com 1.10,2013-01-31 15:52:00,
2013-01-31 10:06:00,28.0,22.0,30.03,WSW,252,1.0,9.0,79,0.00,,,0.00,weatherlink.com 1.10,2013-01-31 16:06:00,
2013-01-31 10:21:00,28.2,22.0,30.04,WNW,295,6.0,13.0,79,0.00,,,0.00,weatherlink.com 1.10,2013-01-31 16:21:00,
2013-01-31 10:36:00,28.4,23.0,30.04,NW,308,6.0,9.0,79,0.00,,,0.00,weatherlink.com 1.10,2013-01-31 16:36:00,
2013-01-31 10:52:00,28.2,23.0,30.04,NW,312,5.0,8.0,81,0.00,,,0.00,weatherlink.com 1.10,2013-01-31 16:52:00,
2013-01-31 11:07:00,28.5,22.0,30.04,NW,323,8.0,10.0,78,0.00,,,0.00,weatherlink.com 1.10,2013-01-31 17:07:00,
2013-01-31 11:21:00,28.8,22.0,30.04,WNW,286,5.0,10.0,76,0.00,,,0.00,weatherlink.com 1.10,2013-01-31 17:21:00,
2013-01-31 11:36:00,29.0,21.0,30.03,NW,314,4.0,16.0,71,0.00,,,0.00,weatherlink.com 1.10,2013-01-31 17:36:00,
2013-01-31 11:51:00,29.0,21.0,30.04,NW,307,8.0,13.0,71,0.00,,,0.00,weatherlink.com 1.10,2013-01-31 17:51:00,
2013-01-31 12:06:00,28.9,21.0,30.04,NW,311,8.0,17.0,73,0.00,,,0.00,weatherlink.com 1.10,2013-01-31 18:06:00,
2013-01-31 12:21:00,29.6,21.0,30.03,NNW,329,5.0,22.0,69,0.00,,,0.00,weatherlink.com 1.10,2013-01-31 18:21:00,
2013-01-31 12:36:00,30.2,20.0,30.03,NW,326,6.0,17.0,67,0.00,,,0.00,weatherlink.com 1.10,2013-01-31 18:36:00,
2013-01-31 12:52:00,29.9,19.0,30.02,NNW,330,10.0,16.0,65,0.00,,,0.00,weatherlink.com 1.10,2013-01-31 18:52:00,
2013-01-31 13:06:00,29.9,19.0,30.02,NNW,348,6.0,16.0,64,0.00,,,0.00,weatherlink.com 1.10,2013-01-31 19:06:00,
2013-01-31 13:21:00,29.4,18.0,30.02,WNW,301,7.0,18.0,63,0.00,,,0.00,weatherlink.com 1.10,2013-01-31 19:21:00,
2013-01-31 13:36:00,29.0,17.0,30.03,SW,235,9.0,29.0,61,0.00,,,0.00,weatherlink.com 1.10,2013-01-31 19:36:00,
2013-01-31 13:52:00,28.4,13.0,30.04,WSW,256,11.0,24.0,53,0.00,,,0.00,weatherlink.com 1.10,2013-01-31 19:52:00,
2013-01-31 14:07:00,28.0,14.0,30.05,NNW,329,5.0,20.0,56,0.00,,,0.00,weatherlink.com 1.10,2013-01-31 20:07:00,
2013-01-31 14:22:00,27.6,15.0,30.06,NNW,334,3.0,21.0,60,0.00,,,0.00,weatherlink.com 1.10,2013-01-31 20:22:00,
2013-01-31 14:37:00,26.5,15.0,30.07,North,4,16.0,21.0,62,0.00,,,0.00,weatherlink.com 1.10,2013-01-31 20:37:00,
2013-01-31 14:52:00,25.9,14.0,30.08,NW,308,9.0,22.0,60,0.00,,,0.00,weatherlink.com 1.10,2013-01-31 20:52:00,
2013-01-31 15:07:00,25.7,13.0,30.09,NNW,330,8.0,28.0,59,0.00,,,0.00,weatherlink.com 1.10,2013-01-31 21:07:00,
2013-01-31 15:37:00,24.0,11.0,30.12,North,352,6.0,31.0,59,0.00,,,0.00,weatherlink.com 1.10,2013-01-31 21:37:00,
2013-01-31 15:52:00,22.8,12.0,30.14,NNW,330,11.0,30.0,63,0.00,,,0.00,weatherlink.com 1.10,2013-01-31 21:52:00,
2013-01-31 16:07:00,21.7,10.0,30.16,WNW,293,17.0,31.0,62,0.00,,,0.00,weatherlink.com 1.10,2013-01-31 22:07:00,
2013-01-31 16:37:00,20.3,10.0,30.18,NNW,345,8.0,22.0,65,0.00,,,0.00,weatherlink.com 1.10,2013-01-31 22:37:00,
2013-01-31 16:52:00,19.8,10.0,30.19,NW,305,6.0,20.0,67,0.00,,,0.00,weatherlink.com 1.10,2013-01-31 22:52:00,
2013-01-31 17:07:00,19.3,10.0,30.19,NNW,347,14.0,18.0,67,0.00,,,0.00,weatherlink.com 1.10,2013-01-31 23:07:00,
2013-01-31 17:22:00,18.7,9.0,30.19,WNW,290,8.0,19.0,65,0.00,,,0.00,weatherlink.com 1.10,2013-01-31 23:22:00,
2013-01-31 17:38:00,18.5,8.0,30.20,NW,312,9.0,27.0,64,0.00,,,0.00,weatherlink.com 1.10,2013-01-31 23:38:00,
2013-01-31 17:52:00,18.1,8.0,30.21,NNW,334,6.0,22.0,65,0.00,,,0.00,weatherlink.com 1.10,2013-01-31 23:52:00,
2013-01-31 18:07:00,17.7,8.0,30.22,WNW,293,8.0,19.0,65,0.00,,,0.00,weatherlink.com 1.10,2013-02-01 00:07:00,
2013-01-31 18:22:00,17.4,7.0,30.24,NNE,15,13.0,19.0,65,0.00,,,0.00,weatherlink.com 1.10,2013-02-01 00:22:00,
2013-01-31 18:37:00,17.3,8.0,30.24,NW,321,5.0,21.0,67,0.00,,,0.00,weatherlink.com 1.10,2013-02-01 00:37:00,
2013-01-31 18:53:00,17.3,8.0,30.25,WNW,293,7.0,21.0,67,0.00,,,0.00,weatherlink.com 1.10,2013-02-01 00:53:00,
2013-01-31 19:08:00,17.2,8.0,30.26,North,5,12.0,17.0,67,0.00,,,0.00,weatherlink.com 1.10,2013-02-01 01:08:00,
2013-01-31 19:23:00,16.6,7.0,30.27,SW,222,10.0,27.0,67,0.00,,,0.00,weatherlink.com 1.10,2013-02-01 01:23:00,
2013-01-31 19:38:00,16.3,7.0,30.27,West,264,3.0,22.0,66,0.00,,,0.00,weatherlink.com 1.10,2013-02-01 01:38:00,
2013-01-31 19:53:00,15.4,4.0,30.29,NW,319,7.0,25.0,61,0.00,,,0.00,weatherlink.com 1.10,2013-02-01 01:53:00,
2013-01-31 20:08:00,14.9,5.0,30.30,North,359,15.0,17.0,65,0.00,,,0.00,weatherlink.com 1.10,2013-02-01 02:08:00,
2013-01-31 20:23:00,14.4,4.0,30.31,NNW,347,10.0,23.0,63,0.00,,,0.00,weatherlink.com 1.10,2013-02-01 02:23:00,
2013-01-31 20:38:00,14.0,5.0,30.32,NNW,338,6.0,28.0,66,0.00,,,0.00,weatherlink.com 1.10,2013-02-01 02:38:00,
2013-01-31 20:53:00,13.6,5.0,30.33,NNW,343,15.0,20.0,68,0.00,,,0.00,weatherlink.com 1.10,2013-02-01 02:53:00,
2013-01-31 21:08:00,12.9,5.0,30.34,WNW,303,11.0,19.0,69,0.00,,,0.00,weatherlink.com 1.10,2013-02-01 03:08:00,
2013-01-31 21:23:00,12.5,3.0,30.35,WNW,288,16.0,24.0,66,0.00,,,0.00,weatherlink.com 1.10,2013-02-01 03:23:00,
2013-01-31 21:38:00,11.9,3.0,30.36,WSW,257,6.0,25.0,67,0.00,,,0.00,weatherlink.com 1.10,2013-02-01 03:38:00,
2013-01-31 21:53:00,11.5,2.0,30.37,North,356,7.0,18.0,66,0.00,,,0.00,weatherlink.com 1.10,2013-02-01 03:53:00,
2013-01-31 22:08:00,11.1,2.0,30.38,NNW,328,10.0,17.0,66,0.00,,,0.00,weatherlink.com 1.10,2013-02-01 04:08:00,
2013-01-31 22:23:00,11.0,2.0,30.38,NNW,336,8.0,16.0,66,0.00,,,0.00,weatherlink.com 1.10,2013-02-01 04:23:00,
2013-01-31 22:39:00,10.7,1.0,30.39,NNW,334,8.0,21.0,66,0.00,,,0.00,weatherlink.com 1.10,2013-02-01 04:39:00,
2013-01-31 22:54:00,10.6,1.0,30.40,NW,305,4.0,17.0,66,0.00,,,0.00,weatherlink.com 1.10,2013-02-01 04:54:00,
2013-01-31 23:09:00,10.5,2.0,30.41,NW,321,6.0,15.0,67,0.00,,,0.00,weatherlink.com 1.10,2013-02-01 05:09:00,
2013-01-31 23:24:00,10.5,3.0,30.41,WNW,291,5.0,15.0,70,0.00,,,0.00,weatherlink.com 1.10,2013-02-01 05:24:00,
2013-01-31 23:39:00,10.2,2.0,30.42,NNW,329,12.0,27.0,68,0.00,,,0.00,weatherlink.com 1.10,2013-02-01 05:39:00,
2013-01-31 23:54:00,10.0,1.0,30.42,West,273,9.0,20.0,68,0.00,,,0.00,weatherlink.com 1.10,2013-02-01 05:54:00,